Wind_Speed
22 21 20 18 19 22 23 24 24 26 28 27 25 24 21 19 18 17 19 19 18 18 16 16 16 15 15 14 13 12 11 11 11 12 14 16 16 17 16 17 18 18 17 18 19 18 17 16 16 17 18 17 17 17 17 17 17 16 14 14 14 13 11 9 9 8 11 12 11 13 16 15 16 19 19 18 19 18 18 19 19 20 20 19 20
21 21 20 17 18 22 24 23 23 26 28 27 26 24 22 20 19 18 19 19 19 18 17 17 17 16 15 14 13 12 12 12 12 13 15 16 17 18 18 18 19 18 16 17 17 17 16 15 16 18 20 20 19 18 17 16 16 16 16 15 14 14 12 9 8 8 10 13 13 13 16 16 17 20 20 19 19 18 18 19 20 20 20 20 18
21 20 19 17 17 20 23 23 23 26 29 28 26 25 23 22 20 20 20 20 20 18 18 18 18 17 16 15 14 13 13 13 13 14 15 16 18 19 19 19 19 17 16 16 15 15 16 15 16 17 18 19 19 18 17 15 15 15 16 16 15 15 14 12 10 10 10 12 14 15 16 18 19 21 20 18 17 17 17 19 20 19 20 20 18
21 20 19 17 17 19 23 25 25 28 29 28 27 26 25 24 22 21 21 21 20 19 18 19 19 18 17 15 14 14 14 14 13 14 15 16 18 19 19 20 19 16 15 15 15 14 14 14 15 15 15 16 16 16 17 16 14 14 14 15 15 14 14 14 12 11 11 12 14 15 15 15 17 20 20 17 17 17 16 17 19 19 20 21 20
21 20 20 19 17 18 21 24 27 30 29 28 29 27 26 25 23 22 22 21 21 21 21 20 20 19 18 16 15 14 14 14 14 14 15 16 18 19 20 20 19 17 16 16 15 14 14 14 13 13 14 15 14 14 16 16 15 15 14 13 14 14 14 14 13 13 12 12 13 14 15 13 14 18 20 18 18 18 16 17 18 18 19 21 22
21 21 22 21 19 19 20 24 28 30 30 30 30 28 27 25 24 24 23 22 23 23 22 22 21 19 18 17 16 15 14 14 14 15 16 17 18 19 20 20 20 19 17 16 15 14 13 13 13 13 13 14 14 14 15 15 15 15 15 14 14 14 13 13 13 13 13 13 13 14 15 15 14 16 19 18 17 19 17 17 18 18 20 22 24
21 21 22 21 21 20 20 24 29 30 30 31 30 28 27 26 26 26 24 23 24 24 23 23 22 21 19 18 16 15 15 15 14 14 16 17 18 19 20 21 20 19 18 17 15 14 12 12 12 12 12 13 13 13 13 13 14 14 14 13 13 13 13 13 13 13 13 14 14 15 15 16 15 16 18 17 15 17 17 16 18 19 19 21 24
19 18 21 22 21 20 20 25 31 31 31 31 29 27 27 27 27 27 26 25 25 24 24 24 23 22 20 19 17 16 15 15 14 15 16 17 19 19 20 20 19 19 18 16 15 13 12 11 11 11 11 12 12 12 12 11 12 12 13 12 12 12 12 12 12 13 14 14 15 15 15 16 16 15 18 18 17 18 18 16 17 18 17 18 21
18 18 24 24 20 19 25 29 31 31 31 31 29 28 27 27 28 28 27 25 25 24 24 23 23 23 22 20 19 17 16 15 13 14 15 18 19 19 20 19 18 18 16 15 14 13 11 11 11 10 11 12 13 13 13 12 12 12 12 11 11 12 12 12 12 12 14 15 14 15 17 18 18 18 19 19 18 18 18 17 16 17 16 15 18
18 19 22 22 21 25 30 32 32 32 31 30 29 28 27 27 28 28 27 26 25 25 24 23 23 23 23 22 20 18 16 14 12 12 13 16 19 19 19 18 17 16 15 14 13 12 11 11 10 10 10 11 12 13 13 14 14 14 14 13 12 12 12 13 13 12 14 15 14 15 17 18 19 19 18 18 17 17 18 18 17 17 18 17 16
19 19 21 22 26 31 33 33 33 33 31 30 29 28 27 27 28 28 28 27 26 26 25 24 23 23 23 23 21 19 17 14 13 12 11 14 18 19 18 18 17 15 14 13 12 11 11 11 10 10 10 10 10 11 12 13 14 14 15 16 16 16 15 13 13 13 14 15 14 15 16 16 18 19 18 17 17 17 16 17 16 16 18 17 15
20 20 24 28 31 34 35 34 34 32 31 29 28 26 26 27 27 28 28 28 28 27 26 24 24 23 23 23 22 20 18 15 14 13 12 12 16 18 18 17 16 15 14 12 12 12 11 10 10 10 10 10 9 9 10 11 12 12 13 14 17 18 18 17 15 13 13 13 14 15 14 14 16 19 19 18 16 16 16 16 16 15 16 17 15
22 23 29 33 34 35 36 35 33 32 30 28 26 25 25 26 27 28 29 28 28 28 26 25 24 23 24 24 23 21 19 17 15 14 12 12 14 17 17 16 16 16 14 13 12 11 11 10 10 11 10 10 10 9 9 9 10 11 11 12 14 16 17 18 18 17 14 12 13 14 13 13 14 17 20 19 17 16 17 16 15 14 14 16 15
25 28 31 33 34 35 36 35 33 32 30 28 26 25 25 27 27 28 28 28 29 28 26 25 24 24 24 23 23 21 20 19 17 15 13 12 13 16 17 15 16 16 15 13 12 11 11 11 11 11 11 11 10 9 8 8 8 8 8 9 11 12 14 15 16 17 15 12 11 13 13 14 14 16 20 21 18 16 16 16 16 14 12 12 12
25 27 28 31 35 35 34 34 33 32 30 28 27 26 26 27 28 28 28 28 28 27 26 25 24 24 24 23 23 22 21 19 18 15 14 12 13 16 17 15 15 15 15 14 13 12 10 10 10 10 11 11 10 9 8 8 7 7 7 7 8 9 10 11 12 13 12 11 10 11 12 13 14 16 18 20 20 15 13 14 14 13 11 10 11
29 27 25 30 36 36 34 34 33 32 31 29 27 27 27 28 28 29 29 29 28 27 26 25 25 24 24 23 23 22 21 20 18 16 14 13 14 17 17 16 15 16 15 14 14 12 11 10 10 10 10 11 10 9 8 7 7 6 6 6 6 6 7 9 10 11 11 10 11 11 12 12 13 15 16 19 21 18 13 14 15 14 13 12 12
29 30 29 31 36 37 35 35 34 33 31 29 28 28 29 29 29 29 29 28 28 27 26 25 25 24 24 24 23 22 21 20 17 16 14 14 16 19 19 17 17 16 15 14 14 12 11 10 9 9 10 10 10 9 8 7 6 5 6 5 5 5 5 6 8 9 10 11 11 12 12 12 12 13 14 16 20 20 16 17 18 16 16 15 13
24 28 29 32 37 39 37 35 34 33 32 30 29 29 30 30 29 28 28 27 27 26 26 25 24 24 24 24 23 22 21 20 18 16 15 15 17 20 19 17 17 17 15 14 13 12 11 11 9 9 10 9 9 9 9 7 5 4 5 5 5 5 4 4 5 7 8 9 10 11 11 12 12 12 13 14 18 21 19 18 16 15 16 15 14
22 26 28 30 35 39 38 36 34 33 32 29 29 30 31 30 29 28 26 26 26 26 25 24 24 24 24 23 22 21 20 20 18 16 16 16 18 20 18 16 17 17 15 14 14 13 12 11 9 9 9 8 9 10 9 7 5 4 3 3 4 4 4 3 4 4 5 6 8 10 10 12 13 12 12 13 16 19 20 18 16 14 14 15 15
21 26 29 31 33 36 38 38 35 33 31 28 29 31 31 31 29 28 27 25 25 25 24 23 24 24 23 22 21 20 20 20 19 17 17 17 19 19 18 16 16 17 15 14 14 13 12 11 9 9 8 8 9 10 9 7 5 3 3 2 3 3 3 3 3 4 4 5 7 8 9 12 13 12 11 12 14 16 18 19 18 15 13 13 14
25 29 31 33 34 34 35 36 36 33 29 28 29 30 31 31 30 29 27 25 23 23 23 23 24 23 22 21 21 20 21 21 20 18 18 18 18 19 18 17 17 17 15 13 12 11 11 11 10 9 8 8 9 10 9 8 6 4 3 2 1 1 2 3 2 3 3 4 5 6 6 8 10 10 10 10 11 14 16 17 17 16 14 12 12
29 31 32 32 31 31 31 32 32 29 27 28 30 31 31 30 30 29 27 24 23 23 24 24 24 23 21 20 20 20 21 21 20 20 19 18 18 19 19 19 19 17 15 12 11 10 10 11 10 9 8 7 8 9 8 7 6 5 4 2 2 1 2 1 1 2 2 3 4 4 6 7 8 9 9 8 10 14 15 15 15 15 14 13 12
26 28 30 30 29 30 31 30 27 26 28 29 31 32 31 29 29 28 26 25 24 24 25 24 24 23 21 21 21 21 21 21 20 20 20 19 19 19 18 18 18 16 14 12 11 10 10 11 10 9 8 7 7 7 6 6 6 5 4 3 3 3 2 2 1 2 2 3 3 4 5 6 7 8 8 8 9 12 14 14 15 15 14 13 13
25 25 27 29 30 31 32 30 27 27 29 31 33 34 32 30 29 27 26 26 26 26 25 25 24 24 23 22 22 23 22 22 21 20 20 20 19 19 17 16 16 16 14 12 11 11 11 10 9 8 7 7 7 6 6 6 5 5 4 3 3 3 4 3 2 2 2 2 3 3 4 4 5 6 7 8 9 11 13 13 13 15 14 13 13
26 27 28 29 29 31 32 30 28 28 30 31 33 34 33 31 30 29 28 28 28 28 27 26 25 26 25 23 24 24 24 24 23 21 21 20 20 19 18 17 16 16 14 13 12 11 10 9 8 7 6 5 5 6 6 6 5 5 4 4 3 3 4 3 2 2 2 2 2 3 3 3 4 5 6 7 8 9 11 11 11 12 13 12 11
27 28 29 28 28 31 32 29 27 29 30 31 32 33 32 32 31 30 29 29 28 28 28 28 28 27 26 25 25 25 25 25 24 23 23 22 21 20 19 18 17 16 14 13 12 11 10 9 7 6 5 4 4 5 6 6 5 5 4 4 4 3 3 3 2 1 1 2 2 2 2 3 3 4 6 7 7 8 10 11 9 9 12 11 8
26 27 29 29 30 32 31 28 27 29 30 31 31 31 31 31 31 30 30 29 28 27 27 28 29 28 27 26 26 27 27 27 25 25 25 24 23 22 21 20 19 17 15 14 14 13 12 10 8 6 5 3 3 4 5 5 5 5 5 5 4 4 4 3 2 2 1 2 2 2 3 3 3 4 4 5 5 7 10 11 9 9 10 10 8
27 27 28 30 31 30 29 28 28 30 30 30 30 30 30 31 31 31 30 30 29 28 28 30 31 30 29 29 28 26 25 25 26 27 27 26 25 24 24 23 21 18 16 15 15 14 13 12 10 8 6 5 4 4 4 5 5 5 5 5 5 5 5 4 3 2 2 2 3 3 3 3 3 3 4 4 4 6 9 9 9 9 10 9 8
25 24 26 29 29 28 27 27 28 29 29 29 29 29 30 32 33 32 31 30 28 26 26 29 33 33 33 33 31 27 24 26 30 29 28 26 26 26 26 25 23 20 18 16 15 15 14 13 12 11 9 7 6 5 4 5 5 5 6 6 5 5 5 4 3 2 2 2 3 3 4 4 4 4 4 4 4 5 7 8 8 8 9 9 8
22 21 23 25 27 28 27 24 25 29 31 30 28 26 26 28 30 30 30 29 27 24 23 25 28 31 33 34 33 31 30 31 31 29 26 25 25 25 25 25 23 21 18 16 15 16 16 14 12 11 10 8 7 6 5 5 5 5 6 7 7 6 6 5 4 3 4 4 4 4 5 5 5 5 5 5 5 5 7 8 8 7 8 8 8
22 21 23 25 27 29 27 23 25 29 30 29 28 25 23 23 24 25 26 27 25 24 23 24 25 28 31 33 32 32 32 30 28 27 27 26 25 24 24 24 23 21 19 17 16 17 17 15 13 12 11 9 9 7 6 6 6 6 6 7 7 8 8 7 6 5 5 5 5 5 6 6 6 6 6 7 7 6 6 7 7 7 7 7 8
22 23 25 26 28 28 26 24 27 27 23 22 25 26 25 22 20 20 21 23 24 23 24 24 24 25 27 29 30 31 30 28 26 26 28 28 27 25 24 24 23 22 20 18 16 16 16 15 13 12 12 11 10 9 8 7 7 7 7 8 8 8 9 9 9 8 7 6 6 6 6 7 7 8 8 8 8 8 7 7 7 7 7 7 7
24 24 25 26 26 25 25 27 29 27 25 25 28 29 27 26 23 21 20 20 21 22 23 23 23 22 22 24 27 28 28 26 24 24 26 29 29 26 24 24 24 23 21 19 16 15 15 15 13 12 13 12 11 11 10 10 9 9 9 9 9 8 9 11 12 11 10 9 9 8 7 8 8 9 9 9 9 9 9 8 7 7 7 7 7
24 23 25 25 23 22 24 28 30 30 30 31 30 30 30 29 28 25 21 18 17 19 21 21 21 19 18 19 22 25 26 25 23 22 24 28 30 28 25 24 24 22 22 21 19 17 17 17 14 12 12 12 12 11 12 11 11 11 11 11 11 10 10 12 13 12 11 11 11 10 9 9 9 9 10 10 9 9 9 8 7 7 7 7 8
22 22 25 26 24 22 23 27 30 31 32 32 31 30 30 28 27 27 25 23 21 20 19 19 20 18 16 15 18 22 23 22 21 21 22 25 30 30 26 25 25 23 23 23 22 19 17 17 16 14 12 12 12 13 13 12 12 12 12 12 12 11 11 12 12 12 11 11 10 10 10 11 10 10 10 11 11 11 11 9 8 8 8 8 8
21 22 24 26 27 26 25 26 30 32 32 32 31 29 27 26 25 26 26 26 24 21 18 17 18 17 15 14 15 19 21 21 20 19 20 24 30 31 28 26 24 23 23 23 22 20 17 16 15 14 13 12 12 12 13 12 12 13 13 13 12 12 11 10 11 11 12 11 11 12 12 12 11 11 11 11 11 12 11 11 10 10 9 10 10
20 22 24 25 26 27 27 27 29 30 30 29 27 25 24 24 25 25 25 25 24 21 18 17 17 16 15 14 15 16 18 19 18 18 19 23 28 30 27 23 21 20 19 19 20 20 18 17 16 15 13 13 13 13 13 13 13 14 14 14 14 14 13 12 12 12 12 11 12 13 13 13 12 12 11 11 11 11 10 10 11 11 11 12 12
20 21 23 25 25 25 25 26 26 26 26 25 24 24 24 23 24 24 23 23 22 20 18 18 18 16 16 16 17 17 17 17 17 18 20 24 28 29 26 23 22 20 18 17 18 20 18 15 16 16 15 14 15 15 15 16 15 15 15 16 16 16 16 15 15 15 14 14 14 14 14 14 13 12 12 11 12 12 12 12 12 12 12 13 12
19 20 21 23 24 24 24 24 25 25 24 24 23 23 24 23 23 23 22 21 21 20 19 19 19 18 18 19 20 19 18 18 19 21 23 26 28 30 29 28 27 26 22 19 20 21 19 16 16 17 16 16 16 17 17 17 17 17 17 17 17 18 18 17 17 17 17 16 16 14 14 14 14 13 13 13 13 13 13 14 14 13 13 12 12
19 19 20 22 23 24 24 24 24 24 24 24 23 23 24 24 24 24 22 22 22 21 19 20 22 22 21 22 22 22 21 22 23 24 26 28 30 31 31 31 30 29 27 24 23 23 21 18 18 18 17 16 16 17 17 17 17 18 18 19 19 20 19 19 19 18 18 18 18 17 17 17 17 16 16 16 16 15 16 16 15 14 14 15 16
19 20 20 22 23 23 23 24 24 24 24 24 24 23 24 24 24 24 23 23 22 20 20 21 24 23 21 21 21 21 22 24 26 26 27 30 32 32 32 32 31 30 28 26 24 23 22 20 19 19 18 16 16 17 17 17 17 18 19 19 20 20 21 21 20 20 20 20 21 20 20 20 19 18 18 18 17 17 18 18 17 16 16 16 16
20 20 21 22 23 23 24 24 24 23 23 23 23 24 24 24 23 23 23 22 21 20 21 23 23 22 21 20 20 21 22 23 24 25 27 29 30 31 31 31 30 29 28 26 24 23 22 20 19 19 18 16 16 16 17 17 18 18 19 20 20 21 21 22 21 21 21 22 22 23 22 22 22 22 22 21 20 19 20 20 20 19 18 17 17
20 21 21 22 23 24 24 24 24 23 23 23 23 23 23 23 23 23 22 21 20 20 21 21 21 20 20 20 20 21 22 23 25 26 28 29 30 31 30 30 29 28 27 25 23 21 20 19 18 18 17 16 15 16 17 18 18 19 20 21 21 22 22 22 23 23 23 23 24 24 23 23 23 23 23 23 23 23 23 24 24 24 22 21 20
19 20 21 22 23 23 23 23 23 23 22 22 22 22 22 22 23 22 20 19 19 19 19 19 19 18 19 19 19 21 23 25 26 27 27 28 29 30 30 29 27 25 23 22 20 19 18 17 16 17 17 16 15 15 16 16 17 18 19 20 21 22 23 23 23 23 23 24 25 25 25 25 24 24 24 24 24 24 24 24 25 25 24 23 21
19 20 20 21 22 22 22 21 21 21 21 21 20 20 20 21 21 20 18 18 18 18 18 18 18 17 17 18 18 19 21 22 23 25 25 26 26 26 26 25 24 21 19 17 16 14 14 15 15 16 16 16 16 16 15 14 14 15 17 18 20 22 23 23 22 22 23 24 25 26 27 27 27 27 26 26 25 25 25 25 25 25 25 25 24
19 19 20 21 22 22 21 20 20 20 20 20 20 20 20 20 20 19 17 17 17 17 17 17 16 15 15 15 15 15 14 14 16 18 19 20 21 21 20 20 18 16 14 13 11 11 11 13 15 15 16 17 17 17 17 16 16 17 17 19 20 22 22 23 23 23 24 25 26 27 28 28 28 29 29 28 27 27 27 27 27 26 26 27 27
18 19 20 20 21 21 21 20 20 19 19 19 19 19 19 18 17 16 15 15 15 13 12 12 13 13 13 12 10 9 8 7 8 10 11 13 14 15 15 16 15 14 12 11 10 10 11 12 13 14 15 17 18 19 20 20 21 21 21 21 22 22 22 22 22 23 23 24 25 26 27 27 28 29 30 29 29 29 29 30 30 30 30 30 30
17 18 18 19 20 20 20 20 19 19 19 18 18 17 17 17 15 14 13 12 10 8 8 9 9 9 8 7 6 4 4 4 5 6 7 8 8 9 10 12 12 12 12 11 10 10 10 10 10 11 13 15 18 20 21 22 23 23 23 24 24 24 23 23 22 22 23 23 24 25 25 26 27 28 29 30 30 31 31 31 32 32 32 31 31
15 16 17 18 18 19 19 19 19 19 18 18 17 17 16 14 13 11 10 9 7 6 5 5 5 4 4 3 3 3 3 3 3 3 3 3 4 5 7 8 9 9 10 10 10 10 9 9 10 11 12 14 16 18 19 20 21 22 23 24 25 25 24 23 23 23 24 24 25 25 26 26 27 28 29 29 30 31 31 31 32 31 29 27 27
13 14 15 16 17 17 18 18 18 17 17 17 17 16 14 12 11 10 8 6 4 3 3 3 3 3 3 3 3 3 2 1 1 1 0 2 4 5 6 6 7 8 8 9 9 10 10 10 10 11 11 12 14 14 16 17 19 20 21 21 22 22 22 22 23 24 24 25 25 25 25 25 26 26 27 27 28 28 28 29 30 29 27 24 24
11 12 13 14 15 16 16 17 17 16 16 15 14 13 12 11 10 8 7 6 5 5 5 4 4 4 4 4 3 3 4 3 2 2 1 2 3 3 4 5 6 7 8 8 9 9 9 9 9 8 9 10 11 12 13 14 15 16 16 17 17 17 18 18 19 20 20 20 20 19 19 19 19 20 21 22 22 23 23 23 23 24 23 22 22
Wind_Direction
182 179 181 182 179 182 186 187 186 183 180 179 176 171 169 168 168 168 168 169 167 165 166 167 167 164 156 146 137 129 125 126 130 131 127 121 115 111 108 107 106 105 105 102 98 93 88 83 80 78 77 74 69 67 65 63 63 59 54 52 49 43 40 46 55 54 37 25 19 16 15 15 19 18 16 16 17 21 23 23 23 22 21 20 15
181 181 181 181 180 181 184 183 183 183 179 177 174 171 170 169 168 168 169 169 168 169 170 169 169 167 159 150 142 134 129 129 133 134 130 123 118 114 111 111 111 109 107 102 99 96 90 86 83 79 78 75 72 70 68 63 61 60 57 55 53 46 43 43 47 50 40 27 19 16 17 19 21 19 19 18 17 21 24 22 25 25 24 24 19
183 182 180 179 176 176 179 180 181 181 178 176 174 172 171 170 170 171 172 170 170 173 173 171 171 169 163 155 147 139 134 133 135 136 133 126 122 119 116 116 115 113 110 106 102 98 94 89 85 81 78 75 72 69 69 66 63 63 61 59 57 51 46 44 43 44 42 33 25 20 20 21 21 21 21 19 17 21 25 24 26 27 25 27 23
184 182 180 177 171 169 174 177 179 179 178 177 175 174 173 171 173 175 174 172 172 175 174 172 173 172 167 160 152 145 138 136 137 137 136 132 126 122 121 120 119 116 113 110 106 101 97 93 87 83 79 74 71 69 68 67 64 63 62 60 58 55 50 47 46 46 44 40 33 26 23 21 20 21 20 19 20 23 26 24 24 26 24 25 26
184 184 182 177 171 168 169 173 177 179 179 178 177 176 174 174 176 178 177 175 174 175 175 174 175 175 171 165 157 149 143 139 138 139 140 138 132 128 125 124 124 121 117 113 108 103 99 95 90 86 81 77 74 71 69 68 65 64 63 61 59 57 53 50 48 48 47 44 38 32 28 24 22 22 19 18 20 22 26 26 23 23 23 23 25
184 184 182 177 174 171 168 170 177 180 180 179 178 177 176 176 178 180 180 179 177 177 177 176 178 178 175 170 163 154 148 143 139 140 144 143 138 133 130 130 129 127 122 116 111 105 100 97 94 90 85 82 79 75 73 71 67 65 63 61 60 58 55 51 47 47 48 46 43 35 30 26 22 21 20 19 20 19 19 23 25 25 24 22 23
183 182 178 175 175 173 169 173 179 182 182 180 179 178 178 179 181 182 184 182 179 179 180 179 180 181 178 174 169 161 154 149 143 142 148 149 145 139 136 135 134 132 128 122 116 109 102 99 98 96 91 87 84 80 78 75 70 67 63 61 60 57 54 51 47 46 46 46 43 37 31 26 23 19 17 19 24 23 16 16 21 21 23 22 20
179 175 171 174 176 171 170 177 182 183 181 179 179 179 180 182 183 184 185 183 182 182 183 182 182 183 181 177 173 168 160 153 147 147 152 155 151 146 141 139 139 137 134 130 124 115 107 102 100 101 99 94 89 85 82 80 74 69 65 61 59 56 53 50 47 46 45 45 43 38 33 29 25 20 18 19 22 20 14 14 15 12 16 23 20
177 169 169 176 177 171 175 180 181 180 178 176 177 178 180 183 185 186 185 185 185 186 186 186 184 184 182 179 176 172 166 159 153 152 156 160 158 153 148 145 143 142 139 137 132 124 117 112 107 107 106 100 94 88 85 84 80 74 67 61 58 56 54 51 49 47 46 46 43 39 36 31 25 21 20 19 16 12 10 13 16 12 13 24 24
176 168 168 174 176 174 177 178 177 175 175 174 175 177 181 184 186 186 186 186 188 188 187 187 186 185 182 181 179 175 171 165 158 155 159 164 164 160 157 154 151 150 147 145 143 137 130 126 119 113 111 107 100 92 87 83 81 78 72 67 64 60 57 53 51 49 48 47 41 38 38 34 26 23 20 17 14 12 11 12 14 14 15 23 23
175 171 169 171 174 174 174 174 174 173 173 174 176 179 184 186 187 187 187 187 188 188 186 186 186 185 184 183 181 178 175 170 162 159 161 167 168 165 165 165 163 161 159 156 156 152 143 138 133 126 123 121 112 100 92 86 82 79 74 70 68 67 64 59 53 49 51 50 43 40 40 35 29 26 21 16 14 14 15 14 14 17 19 22 20
176 175 176 174 173 172 172 171 171 172 173 175 178 182 186 187 188 187 186 186 185 184 185 186 186 186 185 185 183 180 178 174 169 164 163 169 173 170 170 171 170 169 167 164 165 164 157 151 144 140 140 136 126 111 100 92 86 80 75 70 67 67 65 64 61 55 52 52 48 43 39 34 32 29 22 17 12 14 18 17 17 22 24 25 24
177 177 178 175 172 171 170 170 170 172 175 177 179 183 186 186 187 187 185 183 182 182 184 186 187 187 187 186 185 182 180 177 174 171 167 169 176 176 174 175 174 172 169 166 166 167 165 161 155 153 152 147 139 127 112 103 94 84 77 71 67 65 64 62 62 61 57 55 52 47 39 33 33 30 26 23 16 17 22 20 18 24 25 24 24
180 179 175 173 172 172 171 172 173 173 175 178 179 182 184 184 185 184 182 180 180 181 184 186 188 188 188 188 186 183 182 180 177 176 173 171 177 180 179 177 177 177 174 171 171 170 169 167 163 163 162 157 151 142 129 119 109 96 86 79 70 65 62 58 56 57 56 54 54 50 44 39 36 33 32 30 24 19 19 16 11 11 11 15 22
179 179 173 171 174 174 173 174 173 173 174 176 178 180 183 183 182 181 180 180 181 183 186 189 190 190 189 189 187 184 183 182 179 179 179 177 179 183 182 180 180 181 180 178 178 176 174 173 172 171 170 168 162 152 140 132 124 112 101 92 79 67 63 57 54 54 52 50 52 50 46 43 40 38 36 34 31 25 15 11 7 3 5 16 28
177 180 174 172 173 174 175 175 172 171 173 175 177 180 182 182 182 181 180 180 183 185 188 191 193 191 190 189 188 185 184 183 182 183 185 182 182 184 184 183 183 184 185 185 185 184 181 180 181 180 178 177 172 161 148 139 131 119 107 99 88 73 63 58 57 56 52 48 45 43 41 38 37 38 37 34 35 33 22 17 18 16 18 23 25
178 180 178 173 172 175 177 176 173 173 175 177 179 182 182 181 180 180 180 180 183 187 190 192 193 192 190 189 188 186 184 185 185 187 189 187 183 182 182 182 183 184 185 185 185 187 188 189 187 184 183 183 180 171 158 147 137 121 110 103 91 79 65 57 57 55 51 46 40 38 36 32 32 37 37 34 35 35 30 22 17 15 19 21 18
176 179 179 174 173 176 177 176 176 177 177 178 180 181 181 180 180 180 181 182 185 189 192 192 191 192 191 190 190 189 188 187 188 191 193 189 184 182 181 180 183 185 185 186 188 191 192 192 189 188 188 188 186 180 169 159 147 126 113 104 88 79 68 64 64 53 46 40 36 37 37 31 30 33 36 36 35 36 34 24 13 12 18 20 12
178 179 177 172 172 175 176 176 178 176 175 179 184 185 182 181 180 182 184 186 188 190 192 191 189 189 190 190 192 193 192 189 188 191 192 187 183 182 181 180 184 186 186 186 186 188 189 188 188 188 188 189 191 188 180 170 159 138 123 105 87 83 80 83 82 60 45 36 33 38 40 35 32 32 34 36 34 35 34 26 18 15 16 17 12
179 177 174 173 174 175 175 178 178 177 179 185 189 186 183 181 180 181 184 187 189 189 189 189 188 187 189 192 193 196 196 190 185 186 187 184 184 185 182 180 181 182 179 177 177 178 180 181 184 185 184 188 195 193 186 181 172 156 140 112 89 99 104 99 90 69 52 36 33 39 41 37 35 35 36 36 32 30 29 26 23 18 13 13 14
178 177 176 177 177 175 176 178 177 178 185 188 184 180 180 180 180 181 183 184 187 188 188 188 187 187 190 194 195 197 196 187 178 179 183 183 185 187 185 181 179 175 172 172 172 172 174 178 181 181 180 186 195 197 194 191 186 181 175 161 130 134 126 111 86 57 39 26 28 35 37 36 36 36 36 35 30 27 24 21 19 17 13 10 7
175 175 176 176 173 173 176 174 171 177 184 183 177 176 178 181 182 182 182 182 184 187 187 186 187 188 191 194 194 193 190 183 176 177 182 184 187 189 188 186 183 177 172 173 176 174 176 181 184 183 180 183 190 195 197 197 197 199 203 210 218 198 160 142 30 5 7 9 19 29 32 34 34 35 35 33 29 27 24 19 17 17 16 14 10
168 169 171 170 171 176 173 164 168 182 185 180 178 177 178 181 183 182 182 181 182 184 185 185 186 185 185 187 188 186 184 182 179 179 182 185 188 190 192 193 190 183 177 175 177 176 177 181 182 181 182 184 188 191 192 196 202 207 210 217 226 232 231 241 293 332 346 358 9 21 28 29 29 31 31 26 22 22 20 19 21 22 21 21 22
166 165 169 170 174 176 168 163 176 188 184 180 181 179 178 181 181 180 181 181 181 183 184 184 183 182 180 182 184 185 183 183 184 185 185 187 189 191 195 197 194 189 184 179 175 172 172 172 171 170 175 183 190 192 191 196 204 206 206 212 224 236 242 248 271 309 332 349 358 10 21 22 24 27 27 23 18 16 15 14 17 21 23 24 26
165 166 170 173 173 169 165 170 181 183 178 178 179 177 177 178 178 178 181 182 181 182 182 183 184 183 181 181 184 186 186 186 187 188 189 190 191 193 195 197 195 192 188 183 177 173 170 166 162 158 161 172 187 193 196 200 204 205 206 210 220 232 239 245 257 281 316 341 348 355 5 8 12 18 19 19 15 9 8 7 5 10 15 16 20
165 166 169 171 169 166 168 175 179 176 177 180 181 180 180 179 178 178 181 183 184 184 183 184 186 186 185 185 186 188 189 189 190 191 191 192 193 192 193 194 193 192 191 186 180 176 176 173 169 165 161 162 177 189 196 202 206 210 215 217 219 227 238 244 248 269 305 332 337 344 346 340 349 4 8 9 7 360 358 358 355 357 3 2 5
164 164 168 170 169 170 174 176 173 174 178 181 181 182 183 181 180 180 181 183 185 186 186 187 188 189 189 188 189 192 193 193 193 194 193 193 193 191 190 190 189 188 188 187 184 184 185 183 180 177 177 176 178 185 194 198 201 207 214 220 225 233 240 243 247 266 293 310 318 321 323 324 333 352 358 357 357 352 351 354 353 352 354 354 357
168 165 168 170 171 174 178 176 172 173 177 180 182 183 183 184 185 186 189 190 190 189 192 193 195 196 195 192 191 194 197 198 197 196 194 193 193 192 192 192 190 188 188 189 189 191 192 190 188 189 190 191 189 186 189 196 202 210 217 224 234 244 250 254 253 259 277 301 308 305 305 312 319 331 340 343 350 351 351 352 352 348 347 346 350
168 165 168 170 172 176 177 175 173 172 175 181 186 188 189 191 191 193 196 198 198 199 201 202 204 205 203 199 196 195 199 203 202 198 195 194 194 195 196 197 196 195 195 196 197 198 196 192 192 194 195 198 200 197 195 200 208 219 226 232 237 240 244 249 249 251 276 295 304 305 306 309 314 320 327 334 343 346 347 350 349 345 345 345 345
164 166 169 170 173 175 174 172 173 175 178 182 184 186 190 193 195 197 199 201 204 209 211 212 214 212 209 208 206 203 206 209 206 201 197 196 197 200 203 203 202 200 200 200 202 203 200 194 195 199 201 206 211 209 211 215 217 225 232 236 239 239 241 246 248 256 277 285 289 298 304 307 311 316 322 328 331 331 335 340 340 338 341 343 343
164 168 171 172 174 175 173 171 174 178 182 183 181 180 183 190 197 203 204 204 209 214 215 218 222 220 216 215 214 212 214 215 212 207 203 201 200 203 206 208 206 204 204 204 205 207 204 201 203 206 207 213 219 220 223 228 230 236 240 240 242 243 245 250 251 257 270 276 277 286 293 298 304 309 313 319 322 320 322 327 330 331 335 335 334
166 169 172 175 176 176 174 173 175 178 180 181 181 182 182 185 194 204 208 210 214 218 220 222 226 227 225 222 219 218 218 219 218 214 210 207 204 204 207 209 208 206 207 209 209 210 208 207 209 211 212 218 224 227 232 236 238 244 246 247 250 249 247 249 254 257 262 265 269 278 285 290 296 300 302 306 311 313 315 319 320 320 323 325 324
171 170 172 174 174 175 175 175 177 180 182 184 185 187 187 189 192 197 204 211 216 221 224 227 228 231 231 229 225 223 222 221 220 218 216 212 207 205 208 210 208 207 208 210 210 210 211 212 215 215 216 222 227 231 235 238 242 247 249 251 255 255 252 254 257 258 259 262 267 274 279 284 290 295 297 298 300 304 306 308 311 312 315 320 321
175 175 177 176 173 173 177 180 183 186 188 189 189 191 195 197 196 193 193 197 206 215 221 224 225 227 229 230 228 225 224 223 221 221 219 214 208 207 209 208 207 208 211 213 215 216 216 218 219 218 219 224 230 234 237 239 243 247 250 253 257 259 261 261 259 255 255 260 266 268 271 278 284 289 293 295 296 298 300 300 302 306 309 314 317
180 182 183 181 177 175 178 183 187 189 191 193 194 195 197 198 197 195 194 196 200 206 211 215 217 219 221 225 225 222 222 222 222 222 222 215 208 207 206 204 203 207 212 216 219 220 219 219 219 220 222 226 231 237 239 241 244 248 251 254 257 260 263 263 260 255 254 257 261 264 269 276 280 282 288 291 290 290 293 295 297 301 304 307 311
185 187 187 187 186 185 184 188 191 192 194 197 199 198 196 195 195 197 199 201 201 201 202 206 209 211 213 218 219 219 220 220 220 222 223 216 208 205 203 202 204 208 212 216 219 221 222 222 222 222 224 228 233 240 242 244 247 250 253 255 257 260 262 263 261 262 261 260 262 266 271 275 277 279 282 285 285 284 284 286 289 292 294 298 301
193 192 190 190 192 192 191 193 195 195 196 198 198 198 196 197 198 199 201 202 200 198 198 201 199 198 202 207 212 214 216 216 217 221 222 215 208 205 204 204 207 211 214 217 221 223 226 227 227 227 228 233 238 242 245 248 252 255 257 259 260 262 264 265 266 268 267 265 266 270 273 275 276 279 279 279 282 282 280 280 284 286 288 294 296
201 199 196 196 196 194 193 195 196 196 197 198 198 198 198 198 199 202 204 204 200 198 200 199 195 191 192 197 202 206 208 207 209 212 212 208 204 205 208 210 214 218 221 224 227 229 230 231 232 233 235 239 245 249 251 253 255 258 260 262 263 264 266 268 270 271 271 269 269 270 272 274 275 276 276 275 277 281 280 279 282 283 286 290 290
205 206 205 203 200 196 195 196 196 196 197 198 198 200 199 198 199 201 202 203 202 201 201 201 199 196 195 196 197 196 196 198 202 205 208 207 206 209 213 217 221 225 227 230 233 236 236 235 237 240 242 246 252 256 257 256 257 260 262 264 265 266 268 268 269 271 272 272 271 270 271 273 273 272 273 273 274 277 280 282 282 280 280 282 282
207 207 207 205 202 200 200 198 196 196 198 198 199 200 200 200 201 200 199 201 204 203 202 204 206 205 205 205 202 195 193 199 205 208 210 210 210 212 215 219 223 227 230 233 237 239 240 240 242 244 247 251 257 259 258 257 258 260 263 265 266 268 269 269 268 269 269 271 272 271 273 276 276 274 273 275 275 276 279 283 282 278 278 281 283
208 207 206 205 203 202 201 200 200 201 202 201 201 202 203 203 203 201 200 203 205 206 208 213 215 215 214 213 210 204 202 205 209 211 212 213 213 215 218 222 226 230 234 236 238 240 242 243 244 245 247 252 258 260 260 261 262 263 264 265 266 268 269 270 270 270 270 272 273 274 275 278 278 275 273 274 275 277 278 280 280 278 277 279 281
210 208 206 204 204 204 203 203 203 203 202 202 203 205 206 205 203 202 202 203 207 212 218 221 223 222 220 217 214 211 211 212 215 216 217 218 219 221 223 226 230 235 239 241 242 244 246 248 248 246 245 249 258 263 265 267 268 267 267 267 268 269 271 271 272 273 274 274 276 277 277 278 278 277 277 277 275 273 274 275 277 277 276 275 278
213 212 209 206 205 205 206 205 204 202 203 204 206 208 207 205 204 203 204 206 211 217 222 224 225 223 221 219 217 214 215 219 223 225 225 225 226 227 229 232 237 241 245 247 249 250 251 252 252 247 243 246 258 267 270 271 272 270 270 271 272 274 275 275 275 277 277 278 279 280 281 281 280 279 279 280 278 275 274 275 276 276 275 275 277
213 211 209 206 205 205 205 205 205 203 203 204 206 206 205 204 204 205 208 213 217 220 222 224 226 224 221 220 218 217 220 225 227 228 229 230 231 233 235 239 243 248 251 255 256 256 254 255 253 246 242 245 256 265 271 274 275 274 274 275 276 277 278 279 279 280 281 281 281 283 283 283 282 280 279 280 281 278 276 276 276 276 275 274 273
212 210 207 203 201 201 201 203 203 202 200 200 202 203 203 204 204 206 211 215 217 218 220 225 228 228 226 224 223 223 225 228 229 230 233 235 238 240 243 246 250 254 257 261 262 259 258 258 255 249 245 247 253 261 268 274 279 280 280 280 279 279 279 281 282 283 283 282 282 283 283 283 283 282 281 280 280 279 278 278 277 276 275 273 272
212 209 205 201 198 198 198 199 200 199 197 198 199 200 201 202 203 206 209 212 213 214 219 226 231 232 230 230 229 228 229 231 233 236 239 242 245 248 250 252 255 259 264 268 265 257 253 254 253 249 246 245 249 256 264 271 278 283 285 284 282 282 281 282 282 282 282 282 282 282 282 282 282 284 284 282 280 279 278 279 278 276 274 274 273
211 207 203 199 196 194 195 196 196 195 195 195 197 198 198 200 201 203 206 209 212 214 220 229 233 233 233 235 236 236 237 240 241 241 243 248 253 258 262 264 265 266 268 266 259 250 247 249 251 251 249 248 251 257 264 270 276 280 282 282 284 284 283 282 281 280 282 283 284 284 283 282 282 284 285 284 281 279 277 277 277 276 274 273 272
206 202 200 197 194 192 192 192 191 190 189 190 192 194 194 195 197 199 202 205 206 210 219 229 235 238 241 244 243 239 235 234 237 242 248 253 257 263 267 269 269 268 266 263 262 261 261 261 261 260 258 257 258 261 266 270 274 277 279 281 284 285 284 282 282 284 285 286 286 285 284 282 280 281 281 280 279 278 275 274 274 275 274 273 272
200 196 193 192 191 190 189 187 185 184 185 186 187 188 189 190 191 191 192 191 190 196 209 220 224 227 229 218 199 183 173 177 201 230 244 236 231 241 250 253 255 259 263 264 265 265 263 262 262 261 261 262 264 266 269 273 275 278 280 282 283 283 282 282 283 284 285 285 284 283 281 280 279 279 278 277 277 277 276 274 274 275 274 273 273
194 191 188 186 185 186 185 183 179 178 179 181 180 178 177 178 177 174 171 165 156 157 167 168 168 171 164 152 149 149 154 191 254 285 219 186 204 222 233 235 239 248 258 264 269 272 274 275 274 271 268 269 270 270 273 275 275 276 278 278 278 278 278 279 280 282 283 283 283 283 282 282 282 281 280 280 280 281 281 280 279 278 276 274 273
181 180 179 177 177 177 176 173 170 169 171 172 171 165 160 157 152 143 132 121 117 122 128 126 119 110 104 103 96 83 76 65 36 35 83 170 214 240 254 259 263 269 276 280 282 281 278 275 272 269 267 267 267 268 270 272 273 275 277 278 279 281 282 283 284 286 288 290 291 291 290 289 288 287 286 286 286 287 287 286 285 283 280 277 275
Height
791 792 794 797 800 802 805 807 809 812 814 818 821 822 825 828 831 833 835 837 839 841 843 845 846 848 849 850 850 851 851 851 852 852 852 852 852 852 853 854 855 856 857 858 858 858 858 858 858 858 857 856 855 855 854 854 853 852 850 850 849 847 847 846 845 845 845 844 842 840 838 835 833 830 827 825 822 820 818 815 813 810 808 807 805
790 791 793 796 799 801 803 806 809 812 814 817 820 822 825 828 830 833 835 837 839 841 843 845 846 848 849 850 851 851 852 852 852 853 853 853 853 853 854 855 856 858 859 859 859 859 860 860 860 859 858 858 857 857 857 856 855 854 853 851 851 850 849 848 847 846 846 845 843 841 839 836 834 831 828 826 824 821 819 817 814 813 811 809 808
789 790 792 795 797 800 803 806 809 812 814 816 819 821 824 828 830 832 834 836 838 841 843 845 846 848 849 850 851 852 852 853 853 853 854 854 854 854 855 856 857 859 860 861 861 861 861 861 861 861 860 860 859 859 859 858 857 856 855 854 853 852 850 849 848 847 847 846 845 843 840 837 835 833 830 828 826 823 821 819 816 815 812 810 809
788 789 791 794 796 799 802 806 809 811 813 815 818 821 824 827 829 831 833 835 838 840 843 845 846 848 849 850 851 852 852 853 853 854 854 855 855 856 856 857 859 860 861 862 862 862 862 863 863 862 862 862 861 862 861 860 859 858 857 856 855 854 853 851 850 849 848 847 846 844 842 840 838 835 833 830 828 825 823 821 818 816 814 812 810
787 788 790 793 796 799 801 804 807 810 812 814 817 820 823 826 828 830 832 835 837 840 842 845 846 847 849 850 851 852 852 853 853 854 855 856 856 856 857 858 860 861 862 862 863 863 864 864 864 864 864 863 863 863 863 862 861 860 859 858 857 856 854 853 852 851 850 849 848 846 844 842 840 838 835 832 829 827 824 823 820 818 816 814 812
786 787 789 792 795 797 800 803 806 809 811 814 816 819 822 825 827 829 832 834 837 840 842 844 846 847 848 849 851 852 853 853 854 854 855 856 857 857 858 859 861 862 863 863 864 864 865 865 865 865 865 865 865 865 865 864 863 862 861 860 859 857 856 855 854 853 851 850 849 848 846 844 842 839 836 834 832 829 826 824 822 820 818 816 813
786 788 790 793 795 797 799 802 805 808 810 813 816 819 821 824 826 829 831 833 836 839 841 843 845 847 848 849 850 852 852 853 854 854 855 857 857 858 859 860 861 862 863 864 865 865 866 866 866 866 867 866 866 866 866 865 864 863 862 861 860 859 857 856 855 854 853 851 850 849 847 845 844 841 838 836 834 832 829 826 824 822 820 818 815
785 788 792 795 796 797 799 802 804 807 809 812 815 818 820 823 825 828 830 833 835 837 840 842 844 846 847 848 850 851 852 853 854 854 856 857 858 859 860 861 862 863 864 865 866 866 867 867 867 868 868 867 867 867 867 866 866 865 864 862 861 860 859 858 857 855 854 852 851 850 849 847 845 843 840 837 835 833 831 829 827 824 822 821 818
784 787 791 795 796 797 799 801 804 806 809 812 815 817 820 823 825 827 830 832 834 837 839 841 843 845 846 848 850 851 852 853 854 854 856 857 858 859 860 862 863 864 865 866 866 867 868 868 868 868 868 868 868 868 867 867 866 865 865 863 862 861 860 859 858 857 856 854 853 852 851 849 847 845 842 840 838 836 834 832 830 827 825 823 821
783 786 789 793 795 796 798 801 803 806 809 812 815 817 820 822 825 827 829 831 834 836 838 840 842 844 846 847 849 851 852 853 854 855 855 857 858 859 860 862 863 864 865 866 867 868 868 869 869 869 869 869 869 868 868 867 867 866 865 864 863 862 861 860 859 858 857 856 855 854 852 851 850 848 846 844 842 840 837 834 832 830 827 824 822
781 784 787 790 792 794 797 800 803 806 808 811 814 817 819 821 824 826 828 830 833 835 838 840 842 843 845 847 848 850 851 852 853 855 856 857 858 859 860 862 863 864 865 866 867 868 869 869 869 869 870 869 869 869 869 868 868 867 866 865 864 863 862 862 861 860 859 858 858 856 855 854 853 851 849 847 844 842 840 837 835 832 830 827 825
780 783 785 787 790 793 796 799 802 805 808 810 813 815 818 820 822 825 827 829 832 834 837 839 841 843 844 846 848 849 850 852 853 854 855 856 857 859 860 861 863 864 865 866 867 868 869 869 869 870 870 870 870 870 869 869 869 868 867 866 865 864 863 863 862 862 861 860 860 858 857 857 855 853 851 849 847 844 842 840 837 835 833 831 829
778 781 783 786 789 792 795 798 801 804 807 809 812 814 817 819 821 824 826 828 831 834 836 838 840 842 843 845 846 848 849 851 852 853 855 856 857 858 860 861 863 864 865 866 867 868 869 869 870 870 870 870 870 870 870 870 869 869 868 867 866 865 865 864 863 863 863 862 862 860 860 859 857 856 853 851 849 847 844 842 840 838 836 834 833
779 781 783 786 789 792 795 797 800 803 806 809 811 813 816 818 820 823 825 828 830 833 835 837 839 841 842 844 845 847 848 850 851 852 854 855 856 858 859 861 862 864 865 866 867 868 868 869 869 870 870 870 871 870 870 870 870 870 869 868 867 866 866 865 865 864 864 864 863 862 861 860 859 857 855 853 851 849 846 844 842 840 838 837 835
778 781 784 785 788 791 794 797 800 802 805 808 810 812 815 817 819 822 824 827 829 832 834 836 838 839 841 842 844 845 847 849 850 851 852 854 855 857 859 860 862 863 865 866 867 867 868 868 869 870 870 870 870 870 870 871 870 870 870 869 868 867 867 867 866 865 865 865 864 863 862 861 860 858 856 854 852 850 849 847 844 842 840 838 836
775 780 783 784 785 790 794 796 799 802 804 807 809 811 813 815 817 820 822 825 828 830 832 834 836 838 839 841 843 845 846 848 849 850 851 853 855 857 859 860 862 863 864 865 866 867 867 868 869 869 869 869 870 870 870 871 871 870 870 869 869 868 868 867 867 866 866 865 864 863 862 861 860 859 857 856 853 851 850 848 845 843 841 839 837
772 776 781 782 784 788 792 795 797 800 803 805 807 809 812 814 816 819 821 824 826 829 830 832 834 836 838 840 842 844 846 847 848 849 850 852 854 856 858 860 861 863 864 865 866 866 867 867 868 868 869 869 869 869 870 870 871 870 870 869 869 869 869 868 867 867 866 866 865 864 863 862 861 859 858 857 854 852 851 849 846 844 843 840 838
772 776 779 781 782 785 790 793 795 798 801 803 806 808 810 813 815 818 820 823 826 828 829 831 833 835 837 839 841 843 845 846 848 849 850 851 853 855 857 859 861 862 863 864 865 866 866 867 867 868 868 868 869 869 869 870 870 870 870 869 869 869 869 868 868 867 867 866 865 864 863 862 861 860 858 857 855 853 852 851 849 847 845 843 841
773 775 778 780 782 783 787 791 794 797 800 802 804 806 809 812 815 817 820 823 825 827 829 830 832 834 836 838 840 842 844 845 846 848 849 850 852 854 857 859 860 862 863 864 865 865 866 866 867 867 868 868 868 869 869 870 870 870 870 869 869 870 869 869 869 868 868 867 866 865 864 863 862 861 859 858 856 855 854 853 852 850 848 846 844
774 775 777 780 782 783 785 788 792 795 798 801 802 804 807 810 813 816 819 822 824 826 828 830 832 834 836 838 840 841 843 844 845 847 848 850 851 854 856 858 859 861 862 863 864 865 865 866 866 867 867 867 868 868 869 869 869 869 869 869 869 870 869 869 869 868 868 868 867 865 864 863 862 861 860 859 858 856 855 854 853 852 850 848 846
771 774 777 779 781 783 785 786 788 793 797 799 802 804 807 809 812 814 817 820 823 826 828 829 832 834 835 837 839 840 842 843 844 846 848 849 851 853 855 857 858 860 861 863 864 864 865 865 866 866 867 867 867 868 868 868 869 869 869 869 869 869 869 869 869 868 868 867 866 865 864 864 863 862 861 860 859 858 856 855 854 853 851 850 848
769 772 775 778 780 783 785 786 788 792 796 798 801 804 806 809 811 813 816 818 821 824 827 829 831 833 835 836 838 840 842 843 844 845 847 849 851 853 855 856 858 859 861 862 863 864 865 865 865 865 866 866 867 867 867 868 868 868 868 869 869 869 869 869 869 868 868 867 866 866 865 864 863 862 862 861 860 859 858 856 855 853 852 851 850
772 773 775 778 780 782 785 788 790 791 793 796 799 802 805 808 810 812 814 817 820 824 826 828 830 832 834 836 838 840 842 843 844 845 847 849 851 853 855 856 858 859 860 861 862 863 864 864 864 865 865 866 866 866 867 867 867 868 868 868 868 869 869 869 868 868 867 867 866 865 865 864 863 863 862 862 861 860 859 857 856 854 853 852 850
772 774 776 778 780 782 785 788 789 789 791 794 797 800 803 806 809 811 814 816 819 823 826 828 830 831 833 835 838 840 841 843 844 846 847 849 851 853 855 856 858 859 860 861 862 863 863 864 864 864 865 865 865 866 866 866 867 867 867 868 868 868 868 868 868 867 867 866 866 865 865 864 863 863 862 862 861 860 859 858 857 855 854 852 851
770 774 776 778 780 783 786 788 788 789 792 795 797 799 801 803 806 809 812 815 818 821 824 827 829 831 832 834 837 839 841 842 844 845 847 849 851 853 855 856 857 858 859 860 861 862 863 863 864 864 865 865 865 865 865 866 866 867 867 867 868 868 868 868 867 867 866 866 866 865 865 864 863 862 862 861 861 860 859 858 857 856 854 853 851
770 773 776 778 781 784 786 787 789 790 793 796 799 800 801 803 805 808 810 814 817 819 821 824 828 830 832 833 836 838 840 841 843 844 846 848 850 852 854 856 857 858 859 860 861 862 863 863 863 864 864 865 865 865 865 865 866 866 867 867 867 868 868 867 867 866 866 865 865 865 864 864 863 862 861 860 860 860 859 858 857 856 855 853 852
770 773 775 778 781 783 784 786 788 791 793 796 799 800 802 803 806 808 810 813 816 818 820 822 825 829 831 832 835 837 839 840 842 843 845 847 849 851 853 855 856 857 858 859 861 862 862 863 863 863 864 864 865 864 864 865 866 866 867 867 867 867 867 867 866 866 865 865 865 864 864 863 862 861 860 860 860 859 858 858 857 856 855 853 852
769 773 775 777 780 782 783 785 787 790 793 795 798 799 801 803 805 807 809 811 813 816 818 820 823 826 828 831 833 836 838 839 839 840 842 845 847 850 852 854 855 856 857 858 860 861 861 862 862 863 864 864 865 864 864 865 865 866 866 866 866 866 866 866 866 865 865 864 864 864 864 863 862 861 860 859 859 858 858 857 857 856 854 853 852
770 773 775 778 779 781 783 785 787 789 792 795 797 799 800 802 803 805 807 809 811 813 815 817 820 823 825 828 830 833 835 835 836 838 840 843 845 848 850 851 853 854 856 858 859 860 861 861 862 862 863 864 864 864 864 864 864 865 865 866 866 866 866 866 865 865 864 864 864 864 863 863 862 861 860 859 858 857 857 856 856 855 854 853 851
771 774 775 777 779 780 782 785 787 788 791 793 796 798 800 802 804 805 807 809 811 813 814 817 819 821 823 825 827 829 831 832 834 837 840 842 844 846 848 850 852 853 855 857 858 859 860 860 861 861 862 863 863 863 863 863 864 864 864 865 865 865 865 865 864 864 864 863 863 863 863 862 862 861 860 858 858 857 856 855 855 854 854 852 851
770 772 774 776 777 779 782 784 786 788 791 793 795 797 800 803 805 806 807 809 811 813 815 816 818 820 822 824 826 828 830 831 834 836 838 841 843 845 847 849 851 852 854 855 857 857 858 859 859 860 860 861 861 862 862 862 863 863 864 864 864 863 864 863 863 863 862 862 863 862 862 862 861 861 860 859 857 856 855 855 854 854 853 852 851
769 771 773 775 777 779 781 783 785 788 791 793 795 797 799 801 804 806 808 809 811 812 814 816 818 820 821 823 825 827 829 831 833 835 837 839 842 844 846 848 849 851 853 854 855 855 856 857 857 858 858 859 859 860 860 861 861 862 862 862 862 862 862 862 861 861 861 861 861 861 861 861 861 860 860 859 857 856 855 854 854 853 852 851 850
767 770 772 774 777 779 781 782 784 787 789 791 793 795 796 798 801 804 807 808 810 812 814 815 817 819 820 822 824 825 827 829 831 833 835 838 840 843 845 846 848 849 851 852 853 853 854 855 855 855 856 857 857 858 858 859 860 860 861 861 861 861 861 860 860 860 860 860 860 860 860 860 860 859 859 858 857 856 855 854 853 852 851 850 849
766 768 770 773 776 778 779 781 783 785 786 789 791 792 794 796 798 801 804 807 809 811 812 814 815 817 819 820 822 824 826 828 830 832 834 836 839 841 843 845 846 848 848 849 850 851 851 852 852 853 853 854 855 855 856 857 858 858 859 859 859 859 859 858 858 858 858 858 858 858 858 858 858 858 857 857 856 855 854 853 852 851 850 849 849
766 767 769 771 773 775 778 779 781 783 785 787 789 791 792 795 797 799 802 804 807 809 810 812 813 815 817 819 820 822 824 826 829 831 832 834 837 839 842 843 844 845 846 846 847 848 848 849 849 850 850 851 852 853 854 854 855 856 857 857 857 857 857 857 857 857 856 856 856 856 856 856 856 856 856 855 855 854 853 853 852 851 850 849 848
765 766 768 770 771 773 775 777 779 781 783 785 787 789 791 794 796 798 800 803 805 807 809 811 812 813 816 817 819 821 823 825 827 829 831 833 835 837 839 840 841 842 843 844 844 845 846 846 847 847 848 849 850 850 851 852 853 854 855 855 856 856 856 856 856 855 855 855 855 854 854 854 854 854 853 853 853 852 852 851 851 850 849 848 847
764 765 767 769 771 772 774 776 778 780 782 784 787 789 791 793 795 798 800 801 802 805 807 809 810 812 814 816 818 820 822 824 826 828 830 832 834 836 837 838 839 840 841 842 843 844 844 845 845 846 846 847 848 848 849 850 851 852 853 853 854 854 855 855 855 854 854 854 853 853 852 852 852 852 851 851 850 850 850 849 849 848 847 846 845
763 765 766 768 770 772 774 776 777 779 782 784 786 788 790 792 794 797 799 800 801 803 805 807 809 810 812 814 816 818 820 823 825 827 828 830 832 833 835 836 837 838 839 840 841 842 843 843 844 844 845 845 846 847 847 848 849 850 850 851 852 852 852 853 853 853 852 852 852 851 851 850 850 850 849 849 848 848 848 847 847 846 846 845 844
763 764 766 768 769 771 773 775 777 779 781 783 785 787 789 791 793 795 797 800 801 802 804 805 807 809 810 812 814 816 819 821 823 824 826 828 830 831 833 834 835 835 837 838 839 840 841 842 842 842 843 843 844 845 845 846 846 847 848 848 849 849 850 850 850 850 850 850 850 850 849 849 848 848 847 847 846 846 845 845 845 844 844 843 842
762 764 766 768 769 771 773 774 776 778 780 782 784 786 788 790 791 793 796 798 800 802 803 805 806 807 808 810 811 813 815 817 819 821 823 825 827 828 830 831 832 832 833 835 835 837 838 839 840 840 841 841 842 843 843 843 844 844 845 846 846 846 847 847 847 848 848 848 847 847 847 846 846 845 845 844 844 843 843 842 842 842 841 841 840
762 763 765 767 769 771 772 774 775 777 779 781 783 785 787 788 791 793 795 797 799 800 802 803 804 805 806 807 809 811 812 814 817 819 821 822 824 825 827 828 829 830 831 831 832 833 834 836 837 838 838 839 840 840 841 841 842 842 842 843 843 843 844 844 844 844 844 844 844 844 844 844 843 843 842 842 842 841 841 840 839 839 839 838 837
761 762 764 766 768 770 771 773 774 776 778 780 782 784 785 787 790 792 794 795 797 799 800 801 803 804 805 806 808 810 812 814 816 818 819 821 822 823 825 826 827 828 829 829 830 830 831 832 833 834 836 837 838 838 839 839 840 840 840 841 841 841 841 841 841 841 841 841 841 841 841 841 840 840 839 839 839 838 838 837 837 836 836 835 835
761 762 764 765 767 769 771 772 774 776 778 779 781 783 785 786 789 791 793 794 796 797 799 801 803 804 805 805 807 810 812 813 814 816 817 819 820 822 823 824 825 826 827 828 828 828 829 830 830 831 833 834 835 836 837 837 837 838 838 838 838 838 838 838 838 838 838 838 837 837 837 837 837 836 836 835 835 835 834 834 833 833 832 832 832
761 762 763 765 766 768 770 772 773 775 777 779 781 783 784 786 788 790 792 793 795 796 798 800 802 803 804 805 806 808 810 810 812 813 815 817 818 820 821 822 824 825 826 826 826 826 827 828 828 829 830 832 833 834 834 835 835 835 836 836 836 835 835 835 835 835 835 834 834 834 834 834 833 833 832 832 831 831 831 830 830 829 829 829 828
760 762 763 764 766 768 770 771 773 775 777 779 781 782 784 786 787 789 791 792 794 796 798 799 801 802 803 804 805 807 807 808 810 812 813 815 817 818 820 821 822 823 824 824 824 824 825 826 827 827 828 829 831 832 832 833 833 833 833 833 833 832 832 832 832 832 832 831 830 830 830 830 829 829 829 828 828 827 827 826 826 826 825 825 824
760 761 762 764 765 767 769 771 773 775 776 778 780 782 784 786 787 788 790 792 794 795 797 799 800 801 802 803 804 805 806 807 809 810 812 814 816 817 818 820 820 821 822 822 822 823 823 824 824 825 825 826 828 829 830 830 830 830 830 830 830 830 829 829 829 828 828 827 827 827 827 826 826 825 825 825 824 824 823 823 822 822 821 820 819
760 761 762 764 765 767 768 770 772 774 776 778 780 782 784 786 787 789 790 792 794 795 796 798 800 801 802 802 803 804 805 806 808 809 811 813 815 816 817 818 819 819 820 820 820 821 821 821 822 822 823 824 825 826 827 827 827 827 827 827 827 826 826 826 825 825 824 824 823 823 823 822 822 821 820 820 820 819 818 818 817 816 816 815 814
760 761 762 764 765 767 768 770 772 774 776 778 780 782 784 786 788 789 790 792 794 795 796 798 799 800 801 802 803 804 805 806 807 809 810 812 813 814 815 816 817 818 818 818 819 819 819 820 820 820 821 822 823 823 824 824 824 824 823 823 823 823 822 822 822 821 821 820 819 819 818 818 817 816 816 815 814 814 813 812 812 811 810 810 809
760 761 762 764 765 767 768 770 772 774 776 778 781 783 784 786 788 789 790 792 793 794 796 797 798 800 801 802 802 804 805 806 807 808 810 811 812 813 814 815 816 816 816 817 818 818 818 818 818 818 819 819 820 820 820 820 820 820 820 819 819 819 819 818 818 818 817 816 815 814 814 813 812 811 811 810 809 809 809 808 808 807 807 806 805
760 761 762 764 765 767 769 770 772 774 776 779 781 783 784 786 788 789 790 792 793 794 796 797 798 799 801 802 803 804 805 806 807 808 809 810 811 812 813 814 814 814 815 815 815 816 816 816 816 816 816 816 817 817 817 817 816 816 816 816 815 815 815 814 814 813 813 812 811 810 809 809 808 807 807 806 805 805 804 804 804 803 803 802 801
760 762 763 765 766 768 770 771 772 774 777 779 781 783 784 786 788 789 790 792 793 795 796 797 798 800 800 801 802 803 804 806 807 808 809 810 810 811 812 812 812 813 813 813 813 814 814 814 813 814 814 814 814 814 814 814 813 813 813 812 812 811 811 810 810 810 809 808 807 807 806 805 805 804 803 803 802 802 801 800 800 799 799 798 797